Hayward, WI

12:53 PM CST on November 22, 2019 (GMT -0600)
Sawyer County

Weather History for KHYR - September, 2019

Change the Weather History Date:

Saturday, September 14, 2019

  Actual Average Record
Temperature  
Mean Temperature 55 °F -  
Max Temperature 68 °F 78 °F 84 °F (2017)
Min Temperature 44 °F 51 °F 28 °F (2007)
Degree Days  
Heating Degree Days 10    
Growing Degree Days 5 (Base 50)    
Moisture  
Dew Point 50 °F    
Average Humidity 85    
Maximum Humidity 97    
Minimum Humidity 58    
Precipitation  
Precipitation 0.22 in - - ()
Sea Level Pressure  
Sea Level Pressure 30.07 in    
Wind  
Wind Speed 4 mph (South)    
Max Wind Speed 9 mph    
Max Gust Speed 20 mph    
Visibility 7 miles    
Events Fog , Rain    
Averages and records for this station are not official NWS values.
T = Trace of Precipitation, MM = Missing Value Source: NWS Daily Summary

Daily Weather History Graph

Daily Weather History Graph

Search for Another Location

Airport or City:

Astronomy

Sep. 14, 2019 Rise Set
Actual Time 6:42 AM CDT 7:19 PM CDT
Civil Twilight 6:12 AM CDT 7:49 PM CDT
Nautical Twilight 5:36 AM CDT 8:25 PM CDT
Astronomical Twilight 4:59 AM CDT 9:02 PM CDT
Moon 8:00 PM CDT (9/14) 6:54 AM CDT (9/14)
Length of Visible Light 13h 37m
Length of Day
12h 37m
Full, 100% of the Moon is Illuminated
Sep 14
Full
Sep 21
Last Quarter
Sep 28
New
Oct 5
First Quarter
Oct 13
Full

Hourly Weather History & Observations

Time (CDT) Temp. Windchill Dew Point Humidity Pressure Visibility Wind Dir Wind Speed Gust Speed Precip Events Conditions
12:53 AM 52.0 °F - 48.0 °F 86% 30.04 in 10.0 mi SW 6.9 mph - N/A   Clear
1:53 AM 51.1 °F - 48.0 °F 89% 30.06 in 10.0 mi SW 5.8 mph - N/A   Partly Cloudy
2:53 AM 50.0 °F - 48.0 °F 93% 30.06 in 10.0 mi SW 4.6 mph - N/A   Clear
3:53 AM 48.9 °F - 46.9 °F 93% 30.07 in 10.0 mi Calm Calm - N/A   Clear
4:23 AM 45.0 °F 43.5 °F 44.1 °F 97% 30.06 in 1.8 mi SSW 3.5 mph - N/A   Clear
4:28 AM 45.0 °F 42.6 °F 44.1 °F 97% 30.07 in 0.8 mi SSW 4.6 mph - N/A   Clear
4:53 AM 44.1 °F 42.5 °F 43.0 °F 96% 30.09 in 0.2 mi SSW 3.5 mph - N/A Fog Fog
5:53 AM 45.0 °F 43.5 °F 43.0 °F 93% 30.11 in 0.2 mi South 3.5 mph - N/A Fog Fog
6:33 AM 44.1 °F 42.5 °F 42.1 °F 93% 30.09 in 0.2 mi South 3.5 mph - N/A Fog Fog
6:53 AM 44.1 °F - 41.0 °F 89% 30.12 in 0.2 mi Calm Calm - N/A Fog Fog
7:38 AM 45.0 °F - 43.0 °F 93% 30.11 in 1.2 mi Calm Calm - N/A   Overcast
7:44 AM 46.0 °F - 45.0 °F 96% 30.11 in 4.0 mi Calm Calm - N/A   Mostly Cloudy
7:53 AM 46.9 °F - 45.0 °F 93% 30.14 in 7.0 mi Calm Calm - N/A   Scattered Clouds
8:15 AM 48.9 °F - 46.9 °F 93% 30.11 in 10.0 mi SW 3.5 mph - N/A   Mostly Cloudy
8:26 AM 50.0 °F - 48.0 °F 93% 30.12 in 10.0 mi WSW 3.5 mph - N/A   Mostly Cloudy
8:53 AM 51.1 °F - 48.9 °F 92% 30.14 in 10.0 mi SW 5.8 mph - N/A   Mostly Cloudy
9:53 AM 55.9 °F - 48.9 °F 77% 30.13 in 10.0 mi WSW 5.8 mph - N/A   Clear
10:53 AM 60.1 °F - 50.0 °F 69% 30.12 in 10.0 mi South 4.6 mph - N/A   Clear
11:53 AM 62.1 °F - 48.9 °F 62% 30.13 in 10.0 mi SW 6.9 mph - N/A   Overcast
12:53 PM 64.0 °F - 48.9 °F 58% 30.11 in 10.0 mi Calm Calm - N/A   Scattered Clouds
1:53 PM 66.0 °F - 51.1 °F 59% 30.09 in 10.0 mi South 9.2 mph - N/A   Partly Cloudy
2:53 PM 66.0 °F - 51.1 °F 59% 30.07 in 10.0 mi SSE 4.6 mph - N/A   Scattered Clouds
3:53 PM 66.9 °F - 53.1 °F 61% 30.06 in 10.0 mi South 8.1 mph - N/A   Mostly Cloudy
4:53 PM 63.0 °F - 54.0 °F 72% 30.07 in 10.0 mi SSE 4.6 mph - 0.00 in Rain Light Rain
5:12 PM 62.1 °F - 55.9 °F 80% 30.06 in 2.0 mi Calm Calm - 0.03 in Rain Rain
5:24 PM 61.0 °F - 55.9 °F 83% 30.04 in 4.0 mi ESE 4.6 mph - 0.06 in Rain Light Rain
5:53 PM 60.1 °F - 55.9 °F 86% 30.04 in 3.0 mi SE 5.8 mph - 0.11 in Rain Light Rain
6:44 PM 59.0 °F - 55.0 °F 87% 30.04 in 1.8 mi SE 3.5 mph - 0.03 in Rain Rain
6:53 PM 59.0 °F - 55.0 °F 87% 30.06 in 5.0 mi Calm Calm - 0.03 in Rain Light Rain
7:14 PM 57.9 °F - 55.9 °F 93% 30.04 in 2.0 mi SE 4.6 mph - 0.03 in Rain Rain
7:28 PM 57.9 °F - 55.0 °F 90% 30.03 in 3.0 mi SSE 4.6 mph - 0.08 in Rain Rain
7:53 PM 59.0 °F - 54.0 °F 83% 30.02 in 10.0 mi SSE 9.2 mph 19.6 mph 0.08 in   Scattered Clouds
8:53 PM 57.9 °F - 55.0 °F 90% 30.04 in 10.0 mi South 4.6 mph - N/A   Mostly Cloudy
9:53 PM 59.0 °F - 55.0 °F 87% 30.02 in 10.0 mi SSE 5.8 mph - 0.00 in Rain Light Rain
10:53 PM 59.0 °F - 55.0 °F 87% 30.02 in 10.0 mi Variable 3.5 mph - 0.00 in   Mostly Cloudy
11:53 PM 59.0 °F - 55.9 °F 90% 30.01 in 10.0 mi East 3.5 mph - N/A   Mostly Cloudy